When you browse on this site, cookies collect data to enhance your experience and personalize the content and advertising you see.
Visit our Privacy Policy to learn more. By continuing to use the site, you agree to this use of cookies and data.
  • In Deutschland
  • Länderverzeichnis
  • Für 7 Tage
  • Wassertemperatur
  • Wetterkarte
  • Widgets
  • user-avatar
    Anmelden

    Stündliche Wetter Megri

    Heute, 18 September, Mittwoch

    Zeit Temperatur Niederschläge Wind Luftdruck Luftfeuchtigkeit
    00:00 +18°C° 0 mm 1 m/S 623 mmHg 44%
    01:00 +16°C° 0 mm 1 m/S 623 mmHg 47%
    02:00 +16°C° 0 mm 1 m/S 623 mmHg 50%
    03:00 +14°C° 0 mm 0 m/S 623 mmHg 53%
    04:00 +14°C° 0 mm 0 m/S 623 mmHg 54%
    05:00 +13°C° 0 mm 0 m/S 623 mmHg 55%
    06:00 +13°C° 0 mm 0 m/S 624 mmHg 55%
    07:00 +16°C° 0 mm 1 m/S 625 mmHg 48%
    08:00 +19°C° 0 mm 1 m/S 626 mmHg 40%
    09:00 +22°C° 0 mm 1 m/S 627 mmHg 32%
    10:00 +23°C° 0 mm 1 m/S 627 mmHg 29%
    11:00 +24°C° 0 mm 2 m/S 627 mmHg 26%
    12:00 +25°C° 0 mm 2 m/S 628 mmHg 22%
    13:00 +25°C° 0 mm 2 m/S 627 mmHg 21%
    14:00 +26°C° 0 mm 2 m/S 627 mmHg 21%
    15:00 +26°C° 0 mm 2 m/S 627 mmHg 20%
    16:00 +25°C° 0 mm 2 m/S 627 mmHg 24%
    17:00 +23°C° 0 mm 2 m/S 626 mmHg 29%
    18:00 +22°C° 0 mm 1 m/S 626 mmHg 33%
    19:00 +21°C° 0 mm 1 m/S 626 mmHg 38%
    20:00 +20°C° 0 mm 1 m/S 626 mmHg 43%
    21:00 +19°C° 0 mm 1 m/S 625 mmHg 48%
    22:00 +18°C° 0 mm 1 m/S 625 mmHg 49%
    23:00 +18°C° 0 mm 1 m/S 625 mmHg 50%

    Morgen, 19 September, Donnerstag

    Zeit Temperatur Niederschläge Wind Luftdruck Luftfeuchtigkeit
    00:00 +16°C° 0 mm 1 m/S 625 mmHg 51%
    01:00 +15°C° 0 mm 0 m/S 624 mmHg 51%
    02:00 +14°C° 0 mm 0 m/S 624 mmHg 50%
    03:00 +14°C° 0 mm 0 m/S 624 mmHg 49%
    04:00 +14°C° 0 mm 0 m/S 624 mmHg 49%
    05:00 +13°C° 0 mm 0 m/S 624 mmHg 49%
    06:00 +13°C° 0 mm 0 m/S 624 mmHg 50%
    07:00 +16°C° 0 mm 0 m/S 625 mmHg 42%
    08:00 +21°C° 0 mm 1 m/S 626 mmHg 34%
    09:00 +23°C° 0 mm 1 m/S 627 mmHg 27%
    10:00 +25°C° 0 mm 1 m/S 627 mmHg 24%
    11:00 +26°C° 0 mm 1 m/S 628 mmHg 22%
    12:00 +27°C° 0 mm 2 m/S 628 mmHg 20%
    13:00 +27°C° 0 mm 2 m/S 628 mmHg 19%
    14:00 +28°C° 0 mm 2 m/S 627 mmHg 18%
    15:00 +28°C° 0 mm 2 m/S 627 mmHg 17%
    16:00 +26°C° 0 mm 2 m/S 627 mmHg 23%
    17:00 +24°C° 0 mm 2 m/S 626 mmHg 29%
    18:00 +23°C° 0 mm 2 m/S 626 mmHg 35%
    19:00 +21°C° 0 mm 2 m/S 625 mmHg 40%
    20:00 +19°C° 0 mm 2 m/S 625 mmHg 44%
    21:00 +18°C° 0 mm 2 m/S 625 mmHg 49%
    22:00 +18°C° 0 mm 2 m/S 625 mmHg 50%
    23:00 +17°C° 0 mm 2 m/S 625 mmHg 50%

    übermorgen, 20 September, Freitag

    Zeit Temperatur Niederschläge Wind Luftdruck Luftfeuchtigkeit
    00:00 +17°C° 0 mm 2 m/S 625 mmHg 51%
    01:00 +16°C° 0 mm 2 m/S 624 mmHg 52%
    02:00 +16°C° 0 mm 2 m/S 624 mmHg 53%
    03:00 +16°C° 0 mm 2 m/S 624 mmHg 54%
    04:00 +15°C° 0 mm 2 m/S 623 mmHg 55%
    05:00 +15°C° 0 mm 1 m/S 623 mmHg 56%
    06:00 +14°C° 0 mm 1 m/S 623 mmHg 57%
    07:00 +18°C° 0 mm 1 m/S 624 mmHg 49%
    08:00 +20°C° 0 mm 1 m/S 625 mmHg 42%
    09:00 +23°C° 0 mm 2 m/S 626 mmHg 34%
    10:00 +24°C° 0 mm 2 m/S 626 mmHg 30%
    11:00 +25°C° 0 mm 3 m/S 625 mmHg 26%
    12:00 +27°C° 0 mm 3 m/S 625 mmHg 22%
    13:00 +27°C° 0 mm 3 m/S 625 mmHg 21%
    14:00 +28°C° 0 mm 3 m/S 625 mmHg 20%
    15:00 +28°C° 0 mm 3 m/S 624 mmHg 20%
    16:00 +27°C° 0 mm 3 m/S 624 mmHg 23%
    17:00 +25°C° 0 mm 2 m/S 623 mmHg 27%
    18:00 +23°C° 0 mm 2 m/S 622 mmHg 31%
    19:00 +23°C° 0 mm 2 m/S 622 mmHg 30%
    20:00 +21°C° 0 mm 2 m/S 622 mmHg 30%
    21:00 +21°C° 0 mm 1 m/S 622 mmHg 30%
    22:00 +20°C° 0 mm 2 m/S 622 mmHg 29%
    23:00 +20°C° 0 mm 2 m/S 622 mmHg 29%

    21 September, Samstag

    Zeit Temperatur Niederschläge Wind Luftdruck Luftfeuchtigkeit
    00:00 +20°C° 0 mm 2 m/S 621 mmHg 28%
    01:00 +19°C° 0 mm 2 m/S 621 mmHg 29%
    02:00 +19°C° 0 mm 2 m/S 621 mmHg 31%
    03:00 +19°C° 0 mm 3 m/S 620 mmHg 32%
    04:00 +18°C° 0 mm 3 m/S 620 mmHg 34%
    05:00 +18°C° 0 mm 3 m/S 620 mmHg 36%
    06:00 +17°C° 0 mm 2 m/S 619 mmHg 38%
    07:00 +20°C° 0 mm 3 m/S 620 mmHg 34%
    08:00 +22°C° 0 mm 4 m/S 621 mmHg 31%
    09:00 +25°C° 0 mm 5 m/S 621 mmHg 27%
    10:00 +26°C° 0 mm 5 m/S 621 mmHg 26%
    11:00 +26°C° 0 mm 6 m/S 621 mmHg 25%
    12:00 +27°C° 0 mm 7 m/S 621 mmHg 24%
    13:00 +27°C° 0 mm 7 m/S 621 mmHg 24%
    14:00 +27°C° 0 mm 7 m/S 621 mmHg 24%
    15:00 +27°C° 0 mm 7 m/S 621 mmHg 24%
    16:00 +23°C° 0 mm 6 m/S 620 mmHg 36%
    17:00 +20°C° 0 mm 5 m/S 619 mmHg 49%
    18:00 +17°C° 0 mm 4 m/S 619 mmHg 61%
    19:00 +15°C° 0 mm 4 m/S 619 mmHg 64%
    20:00 +13°C° 0 mm 4 m/S 620 mmHg 66%
    21:00 +12°C° 0 mm 4 m/S 620 mmHg 69%
    22:00 +11°C° 0 mm 3 m/S 620 mmHg 70%
    23:00 +11°C° 0 mm 3 m/S 621 mmHg 71%

    22 September, Sonntag

    Zeit Temperatur Niederschläge Wind Luftdruck Luftfeuchtigkeit
    00:00 +10°C° 0 mm 3 m/S 621 mmHg 73%
    01:00 +10°C° 0 mm 3 m/S 621 mmHg 74%
    02:00 +9°C° 0 mm 3 m/S 622 mmHg 76%
    03:00 +9°C° 0 mm 2 m/S 622 mmHg 77%
    04:00 +9°C° 0 mm 3 m/S 622 mmHg 75%
    05:00 +8°C° 0 mm 3 m/S 623 mmHg 74%
    06:00 +8°C° 0 mm 3 m/S 623 mmHg 72%
    07:00 +8°C° 0 mm 3 m/S 624 mmHg 66%
    08:00 +9°C° 0 mm 3 m/S 625 mmHg 60%
    09:00 +10°C° 0 mm 3 m/S 625 mmHg 54%
    10:00 +11°C° 0 mm 3 m/S 625 mmHg 50%
    11:00 +12°C° 0 mm 3 m/S 626 mmHg 46%
    12:00 +14°C° 0 mm 4 m/S 626 mmHg 42%
    13:00 +14°C° 0 mm 3 m/S 625 mmHg 40%
    14:00 +14°C° 0 mm 3 m/S 625 mmHg 39%
    15:00 +16°C° 0 mm 3 m/S 625 mmHg 38%
    16:00 +14°C° 0 mm 3 m/S 624 mmHg 40%
    17:00 +13°C° 0 mm 3 m/S 624 mmHg 42%
    18:00 +11°C° 0 mm 3 m/S 623 mmHg 43%
    19:00 +11°C° 0 mm 3 m/S 623 mmHg 45%
    20:00 +10°C° 0 mm 3 m/S 623 mmHg 46%
    21:00 +10°C° 0 mm 2 m/S 623 mmHg 47%
    22:00 +9°C° 0 mm 2 m/S 623 mmHg 49%
    23:00 +9°C° 0 mm 2 m/S 623 mmHg 50%

    23 September, Montag

    Zeit Temperatur Niederschläge Wind Luftdruck Luftfeuchtigkeit
    00:00 +9°C° 0 mm 2 m/S 623 mmHg 51%
    01:00 +8°C° 0 mm 2 m/S 623 mmHg 53%
    02:00 +8°C° 0 mm 2 m/S 623 mmHg 54%
    03:00 +8°C° 0 mm 2 m/S 623 mmHg 56%
    04:00 +8°C° 0 mm 2 m/S 623 mmHg 58%
    05:00 +7°C° 0 mm 2 m/S 623 mmHg 60%
    06:00 +7°C° 0 mm 2 m/S 622 mmHg 62%
    07:00 +9°C° 0 mm 2 m/S 623 mmHg 56%
    08:00 +12°C° 0 mm 2 m/S 624 mmHg 50%
    09:00 +14°C° 0 mm 2 m/S 625 mmHg 45%
    10:00 +16°C° 0 mm 2 m/S 625 mmHg 41%
    11:00 +17°C° 0 mm 2 m/S 625 mmHg 37%
    12:00 +19°C° 0 mm 2 m/S 626 mmHg 33%
    13:00 +20°C° 0 mm 2 m/S 625 mmHg 32%
    14:00 +20°C° 0 mm 2 m/S 625 mmHg 31%
    15:00 +20°C° 0 mm 2 m/S 624 mmHg 30%
    16:00 +18°C° 0 mm 3 m/S 623 mmHg 37%
    17:00 +16°C° 0 mm 3 m/S 623 mmHg 44%
    18:00 +13°C° 0 mm 4 m/S 622 mmHg 51%
    19:00 +12°C° 0 mm 3 m/S 622 mmHg 57%
    20:00 +11°C° 0 mm 3 m/S 622 mmHg 63%
    21:00 +10°C° 0 mm 3 m/S 622 mmHg 68%
    22:00 +10°C° 0 mm 3 m/S 622 mmHg 70%
    23:00 +10°C° 0 mm 3 m/S 622 mmHg 71%
    Mehr zeigen